Miscellaneous Local Product
Issued by NWS North Platte, NE

Home | Current Version | Previous Version | Text Only | Print | Product List | Glossary On
Versions: 1 2 3 4 5 6 7 8 9 10 11 12 13 14 15 16 17 18 19 20 21 22 23 24 25 26 27 28 29 30 31 32 33 34 35 36 37 38 39 40 41 42 43 44 45 46 47 48 49 50
000
AXUS43 KLBF 260210
MISLBF


WESTERN AND NORTH CENTRAL NEBRASKA HOURLY WEATHER ROUNDUP
NATIONAL WEATHER SERVICE NORTH PLATTE NE
900 PM CDT THU AUG 25 2016

NOTE: "FAIR" INDICATES FEW OR NO CLOUDS BELOW 12,000 FEET WITH NO
SIGNIFICANT WEATHER AND/OR OBSTRUCTIONS TO VISIBILITY.

NOTE: STATIONS NOT REPORTING VARIABLES SUCH AS SKY/WEATHER OR
PRESSURE ARE PROVIDED BY RAWS AND APRS NETWORKS AND ARE NOT UNDER
NATIONAL WEATHER SERVICE QUALITY CONTROL.

...OBSERVATIONS IN AND NEAR THE EASTERN PANHANDLE OF NEBRASKA...

CITY           SKY/WX    TMP DP  RH WIND       PRES   REMARKS
PINE RIDGE     CLOUDY    60  50  69 E5        30.20F
CHADRON        CLOUDY    61  50  67 NE7       30.19S
ALLIANCE       CLOUDY    60  46  59 NE7       30.19S
SIDNEY         PTCLDY    66  44  45 SE8       30.20S
CRESCENT LAKE    N/A     65  45  48 E8          N/A
$$

...OBSERVATIONS IN NORTHERN NEBRASKA AND FAR SOUTHERN SOUTH DAKOTA...

CITY           SKY/WX    TMP DP  RH WIND       PRES   REMARKS
WINNER         FAIR      65  47  52 W3        30.18R
VALENTINE      CLEAR     65  44  46 NE5       30.19F
THEDFORD       CLEAR     64  48  56 NE5       30.20S
AINSWORTH      CLEAR     59  52  77 N7        30.20S
O`NEILL        CLEAR     64  53  67 N3        30.18R
ORD            CLEAR     64  54  69 CALM      30.16R
BROKEN BOW     CLEAR     58  55  90 CALM      30.17S
VALENTINE NWR    N/A     64  48  56 N5G13       N/A
BUTTE            N/A     63  51  64 NW3         N/A
HALSEY           N/A     67  46  47 NE3         N/A
EWING            N/A     63  57  80 CALM        N/A
$$

...OBSERVATIONS IN SOUTHWEST NEBRASKA AND FAR NORTHEAST COLORADO...

CITY           SKY/WX    TMP DP  RH WIND       PRES   REMARKS
WRAY           FAIR      68  45  42 E8        30.18S
HOLYOKE        FAIR      63  48  59 SE7       30.18S
IMPERIAL       CLEAR     64  48  56 SE8       30.17S
OGALLALA       PTCLDY    68  48  48 E7        30.17S
NORTH PLATTE   CLEAR     61  54  77 E6        30.17R
MCCOOK         CLEAR     67  53  61 E8        30.16R
LEXINGTON      CLEAR     64  56  74 E6        30.18R
STAPLETON        N/A     65  52  62 CALM        N/A
GOTHENBURG       N/A     71  52  51 E3          N/A
CALLAWAY         N/A     68  56  66 CALM        N/A
$$

...OBSERVATIONS IN CENTRAL LINCOLN COUNTY AREA...

CITY           SKY/WX    TMP DP  RH WIND       PRES   REMARKS
N.P. AIRPORT   CLEAR     61  54  77 E6        30.17R
N.P. DOWNTOWN    N/A     70  55  57 CALM        N/A
N.P. HILLCREST   N/A     66  50  57 E8          N/A
$$

...SOME OBSERVATIONS FROM AROUND THE REGION...

CITY           SKY/WX    TMP DP  RH WIND       PRES   REMARKS
DENVER         CLOUDY    55  51  86 SE7       30.22F
LARAMIE        CLOUDY    54  39  57 SE12      30.25S
CHEYENNE       CLOUDY    60  42  51 SW12      30.25S
SCOTTSBLUFF    CLOUDY    61  48  62 E8        30.18R
RAPID CITY     MOCLDY    60  43  53 S5        30.20S
BISMARCK       PTCLDY    61  48  62 SW6       30.11F
PIERRE         CLEAR     60  47  61 NW5       30.17R
SIOUX FALLS    PTCLDY    62  56  80 CALM      30.13R
OMAHA          PTCLDY    68  61  78 N3        30.13R
GRAND ISLAND   CLEAR     63  57  81 NE7       30.17R
KANSAS CITY    CLOUDY    73  66  78 NE8       30.08R
WICHITA        CLOUDY    78  67  68 NE13      30.05S
OKLAHOMA CITY  MOCLDY    83  67  58 S10       30.00R
DALLAS         MOCLDY    87  70  56 SE12      30.00R HX  92
AMARILLO       RAIN      63  59  87 E6        30.17R
DODGE CITY     CLOUDY    67  63  87 NE5       30.13R
HAYS           CLOUDY    66  54  63 NE7       30.13R
GOODLAND       PTCLDY    63  54  72 SE5       30.19R
$$




USA.gov is the U.S. government's official web portal to all federal, state and local government web resources and services.